Location: Asheville, NC
(35.6000°N, 82.5500°W)
Time: 17:27:55
(UTC-04:00)

Vanguard 2 - Pass Details

Date: 15 February 2018
Orbit: 552 x 2940 km, 32.9° (Epoch: 22 May)

Event Time Altitude Azimuth Distance (km) Brightness Sun altitude
Rises 20:38:30 0° 255° (WSW) 4,334 12.4 -30.3°
Reaches altitude 10° 20:42:03 10° 253° (WSW) 2,987 11.3 -31.0°
Enters shadow 20:47:18 46° 228° (SW) 1,119 8.4 -32.1°
Maximum altitude 20:48:43 61° 174° (S) 883 - -32.4°
Drops below altitude 10° 20:53:09 10° 94° (E) 2,010 - -33.2°
Sets 20:55:08 0° 90° (E) 2,809 - -33.6°
